Location: Unspecified
(38.0989°N, 0.6729°W)
Time: 15:03:04
(UTC+01:00)

Amateur Radio Satellites - All Passes

Search period start: 24 March 2017 14:33
Search period end: 25 March 2017 14:33
Location: Unspecified, 38.0989°N, 0.6729°W

Satellite Date Start Highest point End Downlink Frequencies (MHz)
Time Altitude Azimuth
DX 1 24 Mar 14:35:23 14:39:25 36° 289° (WNW) 14:43:26 434.975-435.025
RS-15 24 Mar 14:35:40 14:47:32 64° 307° (NW) 14:59:51 29.354- 29.394
ITUPSAT 1 24 Mar 14:40:25 14:41:24 11° 90° (E) 14:42:22 437.325
VELOX 1 24 Mar 14:51:30 14:53:02 12° 297° (WNW) 14:54:34 145.980
Gurwin Techsat 1B 24 Mar 14:51:45 14:56:40 38° 262° (W) 15:01:37 435.225
ITAMSAT 1 24 Mar 15:00:42 15:05:37 43° 71° (ENE) 15:10:34 435.822/435.867
Oscar 19 24 Mar 15:00:58 15:04:16 17° 267° (W) 15:07:35 437.125/150
UKube-1 24 Mar 15:22:00 15:24:47 17° 294° (WNW) 15:27:35 .
SO-50 24 Mar 15:45:11 15:49:51 78° 119° (ESE) 15:54:29 436.795
NO-84 24 Mar 15:51:47 15:55:05 57° 227° (SW) 15:58:41 435.350 FM
BEESAT 24 Mar 16:00:28 16:05:15 85° 104° (ESE) 16:10:00 436.000
AO-7 24 Mar 16:14:28 16:22:40 61° 256° (WSW) 16:30:54 .
ITUPSAT 1 24 Mar 16:14:55 16:19:40 70° 285° (WNW) 16:24:23 437.325
MOZHAYETS 4 24 Mar 16:40:53 16:45:27 85° 286° (WNW) 16:50:00
ITAMSAT 1 24 Mar 16:41:21 16:45:14 21° 266° (W) 16:49:09 435.822/435.867
KKS-1 24 Mar 16:42:14 16:45:27 19° 94° (E) 16:48:39 437.445
O/OREOS (USA 219) 24 Mar 16:52:59 16:56:15 20° 101° (E) 16:59:33 437.305
RS-15 24 Mar 16:53:58 17:03:15 24° 335° (NNW) 17:12:39 29.354- 29.394
DOVE 4 24 Mar 17:14:02 17:17:08 18° 65° (ENE) 17:20:22 437.250
STARS 24 Mar 17:25:25 17:29:03 24° 96° (E) 17:32:39 437.465
CUBESAT XI-V 24 Mar 17:26:03 17:30:31 45° 99° (E) 17:34:58 437.345
SO-50 24 Mar 17:28:22 17:30:51 14° 317° (NW) 17:33:20 436.795
BEESAT 24 Mar 17:42:13 17:42:17 10° 299° (WNW) 17:42:20 436.000
LilacSat-2 24 Mar 17:59:46 18:03:19 37° 73° (ENE) 18:06:52 437.200
XW-2F 24 Mar 18:03:03 18:06:35 37° 73° (ENE) 18:10:07 145.980 - 146.000
CUTE-I 24 Mar 18:10:46 18:15:58 52° 72° (ENE) 18:21:11 437.470
YUBILEINY 24 Mar 18:16:16 18:23:04 25° 68° (ENE) 18:29:49 435.215
KKS-1 24 Mar 18:17:59 18:22:05 36° 289° (WNW) 18:26:09 437.445
XW-2D 24 Mar 18:27:02 18:30:51 86° 77° (ENE) 18:34:41 145.860 - 145.880
O/OREOS (USA 219) 24 Mar 18:31:14 18:35:22 35° 297° (WNW) 18:39:34 437.305
XW-2B 24 Mar 18:32:54 18:36:43 83° 258° (WSW) 18:40:33 145.730 - 145.750
NUDT-PHONESAT 24 Mar 18:35:48 18:39:33 86° 77° (ENE) 18:43:19 437.300
M-CUBED/EXP-1 PRIME 24 Mar 18:38:06 18:41:43 22° 99° (E) 18:45:20 437.505
KAITUO 1B 24 Mar 18:39:52 18:43:37 84° 259° (W) 18:47:22 145.475/437.950
XW-2C 24 Mar 18:43:02 18:46:48 59° 260° (W) 18:50:35 145.795 - 145.815
PCSat 24 Mar 18:43:06 18:47:02 20° 48° (NE) 18:50:58 145.827
DOVE 4 24 Mar 18:50:03 18:54:23 44° 262° (W) 18:59:02 437.250
CUBEBUG 2 24 Mar 19:00:01 19:01:43 12° 63° (ENE) 19:03:26 437.445
HO-68 24 Mar 19:00:43 19:07:19 42° 66° (ENE) 19:13:56 435.675
STARS 24 Mar 19:01:35 19:05:19 27° 291° (WNW) 19:09:02 437.465
CUBESAT XI-V 24 Mar 19:04:31 19:07:30 17° 294° (WNW) 19:10:29 437.345
RS-15 24 Mar 19:14:05 19:22:18 19° 12° (NNE) 19:30:25 29.354- 29.394
XW-2A 24 Mar 19:27:26 19:30:49 58° 76° (ENE) 19:34:14 145.665 - 145.685
AAUSAT CUBESAT 2 24 Mar 19:32:32 19:34:58 15° 67° (ENE) 19:37:23 437.432
LilacSat-2 24 Mar 19:35:52 19:37:44 13° 268° (W) 19:39:35 437.200
SEEDS 24 Mar 19:39:01 19:42:53 38° 73° (ENE) 19:46:45 437.485
XW-2F 24 Mar 19:39:08 19:40:52 13° 268° (W) 19:42:38 145.980 - 146.000
CUTE 1.7 + AOD 2 24 Mar 19:40:46 19:44:57 65° 75° (ENE) 19:49:07 437.475
AO-73 24 Mar 19:48:13 19:49:52 12° 64° (ENE) 19:51:31 145.935
CUTE-I 24 Mar 19:52:41 19:56:17 18° 267° (W) 19:59:55 437.470
UWE-3 24 Mar 20:05:06 20:09:19 35° 71° (ENE) 20:13:31 435.000/436.395/437.385
M-CUBED/EXP-1 PRIME 24 Mar 20:11:54 20:16:08 37° 294° (WNW) 20:20:26 437.505
YUBILEINY 24 Mar 20:11:56 20:20:31 67° 268° (W) 20:29:07 435.215
PCSat 24 Mar 20:25:30 20:30:52 62° 246° (WSW) 20:36:11 145.827
STRAND 1 24 Mar 20:32:28 20:37:37 86° 101° (E) 20:42:43 437.568
CUBEBUG 2 24 Mar 20:32:57 20:37:41 73° 259° (W) 20:42:27 437.445
HO-68 24 Mar 20:48:39 20:55:02 35° 263° (W) 21:01:28 435.675
Oscar 11 24 Mar 20:48:41 20:52:47 44° 73° (ENE) 20:56:54 .
ZACube-1 24 Mar 20:51:08 20:55:40 64° 75° (ENE) 21:00:09 437.345
AAUSAT CUBESAT 2 24 Mar 21:06:15 21:10:05 38° 262° (W) 21:13:56 437.432
DELFI C3 24 Mar 21:12:52 21:15:57 22° 70° (ENE) 21:19:01 145.870
SEEDS 24 Mar 21:16:17 21:18:42 15° 267° (W) 21:21:08 437.485
AO-73 24 Mar 21:21:01 21:25:32 65° 259° (W) 21:30:02 145.935
AO-85 24 Mar 21:27:06 21:31:26 47° 116° (ESE) 21:35:29 145.980
RS-15 24 Mar 21:27:51 21:39:27 44° 44° (NE) 21:50:33 29.354- 29.394
UWE-3 24 Mar 21:42:13 21:45:48 22° 266° (W) 21:49:22 435.000/436.395/437.385
ISS 24 Mar 21:47:41 21:50:54 73° 139° (SE) 21:54:10 437.550
Tancredo 1 24 Mar 21:58:33 22:01:42 73° 321° (NW) 22:04:53 437.200
STRAND 1 24 Mar 22:14:36 22:16:01 11° 300° (WNW) 22:17:26 437.568
TIGRISAT 24 Mar 22:16:34 22:19:35 18° 93° (E) 22:22:35 435.000
PRISM 24 Mar 22:19:47 22:23:46 43° 99° (E) 22:27:45 437.425
UNISAT 6 24 Mar 22:25:31 22:29:10 25° 95° (E) 22:32:44 437.425
Oscar 11 24 Mar 22:26:48 22:29:07 14° 268° (W) 22:31:27 .
FO-29 24 Mar 22:27:35 22:31:22 17° 89° (E) 22:34:55 435.910
ZACube-1 24 Mar 22:31:02 22:32:17 11° 270° (W) 22:33:32 437.345
ESTCUBE 1 24 Mar 22:46:49 22:50:01 20° 67° (ENE) 22:53:14 437.505/2401.250
DELFI C3 24 Mar 22:47:29 22:50:37 23° 265° (W) 22:53:46 145.870
AO-85 24 Mar 23:09:04 23:12:00 18° 312° (NW) 23:14:51 145.980
ISS 24 Mar 23:25:27 23:27:42 17° 336° (NNW) 23:29:57 437.550
LO-87 24 Mar 23:29:01 23:32:33 65° 259° (W) 23:36:09 145.935 - 145.965
BEESAT 3 24 Mar 23:35:09 23:39:02 74° 301° (WNW) 23:43:01 437.485
SPROUT 24 Mar 23:35:14 23:37:56 17° 66° (ENE) 23:40:39 437.525
Tancredo 1 24 Mar 23:36:39 23:38:19 13° 339° (NNW) 23:40:01 437.200
RS-15 24 Mar 23:40:35 23:52:27 61° 248° (WSW) 00:03:46 29.354- 29.394
BEESAT 2 24 Mar 23:45:40 23:49:30 52° 117° (ESE) 23:53:24 435.950
POLYITAN 1 24 Mar 23:52:06 23:54:50 17° 93° (E) 23:57:32 437.675
TIGRISAT 24 Mar 23:52:21 23:56:24 35° 289° (WNW) 00:00:20 435.000
DX 1 24 Mar 23:55:05 23:57:12 13° 64° (ENE) 23:59:19 434.975-435.025
QB50P2 24 Mar 23:56:14 23:59:24 20° 94° (E) 00:02:33 145.880/145.840
PRISM 24 Mar 23:56:23 23:58:39 15° 295° (WNW) 00:00:57 437.425
UNISAT 6 25 Mar 00:02:06 00:05:47 26° 291° (WNW) 00:09:24 437.425
VELOX 1 25 Mar 00:08:08 00:12:19 45° 72° (ENE) 00:16:32 145.980
FO-29 25 Mar 00:11:05 00:17:02 56° 288° (WNW) 00:22:20 435.910
DUCHIFAT 1 25 Mar 00:11:47 00:15:09 23° 95° (E) 00:18:29 145.980
SO-50 25 Mar 00:18:13 00:22:30 42° 54° (NE) 00:26:45 436.795
AIST 2D 25 Mar 00:19:14 00:22:43 69° 101° (E) 00:26:10 435.315
ESTCUBE 1 25 Mar 00:22:27 00:26:33 35° 262° (W) 00:30:41 437.505/2401.250
50 SAT 25 Mar 00:36:54 00:40:16 58° 76° (ENE) 00:43:41 437.505
BUGSAT 1 25 Mar 00:37:59 00:40:17 14° 92° (E) 00:42:33 437.445
UKube-1 25 Mar 00:37:59 00:41:38 27° 69° (ENE) 00:45:17 .
NANOSAT C BR1 25 Mar 00:55:57 01:00:12 88° 102° (ESE) 01:04:24 145.865
EO-79 25 Mar 00:59:05 01:03:21 78° 282° (WNW) 01:07:33 145.935-145.965
SPROUT 25 Mar 01:09:28 01:13:30 40° 262° (W) 01:17:35 437.525
BEESAT 2 25 Mar 01:25:16 01:27:35 15° 314° (NW) 01:29:55 435.950
POLYITAN 1 25 Mar 01:26:50 01:30:44 36° 288° (WNW) 01:34:35 437.675
DX 1 25 Mar 01:28:41 01:32:54 52° 259° (W) 01:37:10 434.975-435.025
QB50P2 25 Mar 01:31:29 01:35:12 30° 290° (WNW) 01:38:53 145.880/145.840
Oscar 19 25 Mar 01:33:42 01:37:29 20° 94° (E) 01:41:15 437.125/150
ITUPSAT 1 25 Mar 01:45:34 01:47:17 12° 62° (ENE) 01:49:00 437.325
VELOX 1 25 Mar 01:46:33 01:48:59 15° 268° (W) 01:51:25 145.980
DUCHIFAT 1 25 Mar 01:47:14 01:50:46 26° 290° (WNW) 01:54:15 145.980
SO-50 25 Mar 01:59:30 02:02:37 19° 250° (WSW) 02:05:44 436.795
BUGSAT 1 25 Mar 02:11:52 02:15:49 41° 288° (WNW) 02:19:41 437.445
UKube-1 25 Mar 02:14:11 02:17:36 23° 264° (W) 02:21:04 .
ISS 25 Mar 02:41:47 02:43:02 12° 17° (NNE) 02:44:18 437.550
Tancredo 1 25 Mar 02:51:26 02:53:02 13° 20° (NNE) 02:54:37 437.200
O/OREOS (USA 219) 25 Mar 03:03:29 03:07:34 30° 62° (ENE) 03:11:38 437.305
BEESAT 25 Mar 03:04:52 03:09:39 80° 77° (ENE) 03:14:28 436.000
Gurwin Techsat 1B 25 Mar 03:09:06 03:14:26 85° 287° (WNW) 03:19:45 435.225
Oscar 19 25 Mar 03:12:04 03:16:57 44° 289° (WNW) 03:21:51 437.125/150
ITAMSAT 1 25 Mar 03:16:19 03:19:39 17° 93° (E) 03:22:58 435.822/435.867
ITUPSAT 1 25 Mar 03:19:40 03:24:27 73° 257° (WSW) 03:29:16 437.325
KKS-1 25 Mar 03:39:23 03:41:58 15° 65° (ENE) 03:44:36 437.445
MOZHAYETS 4 25 Mar 03:40:40 03:45:15 74° 76° (ENE) 03:49:51
ISS 25 Mar 04:16:58 04:20:11 46° 36° (NE) 04:23:22 437.550
AO-7 25 Mar 04:17:50 04:25:53 52° 102° (ESE) 04:33:53 .
STARS 25 Mar 04:20:51 04:23:56 19° 66° (ENE) 04:27:02 437.465
Tancredo 1 25 Mar 04:26:29 04:29:41 66° 38° (NE) 04:32:52 437.200
CUBESAT XI-V 25 Mar 04:27:41 04:31:52 36° 71° (ENE) 04:36:03 437.345
O/OREOS (USA 219) 25 Mar 04:43:07 04:46:48 24° 258° (WSW) 04:50:28 437.305
Gurwin Techsat 1B 25 Mar 04:52:31 04:53:32 11° 301° (WNW) 04:54:33 435.225
ITAMSAT 1 25 Mar 04:54:20 04:59:23 52° 288° (WNW) 05:04:24 435.822/435.867
KKS-1 25 Mar 05:13:49 05:18:07 47° 260° (W) 05:22:27 437.445
M-CUBED/EXP-1 PRIME 25 Mar 05:23:26 05:25:49 17° 61° (ENE) 05:28:19 437.505
ISS 25 Mar 05:54:15 05:56:22 16° 231° (SW) 05:58:29 437.550
STARS 25 Mar 05:55:53 05:59:58 37° 262° (W) 06:04:06 437.465
AO-85 25 Mar 06:00:06 06:03:18 23° 51° (NE) 06:06:33 145.980
Tancredo 1 25 Mar 06:04:38 06:05:26 11° 232° (SW) 06:06:12 437.200
CUBESAT XI-V 25 Mar 06:06:00 06:09:19 20° 266° (W) 06:12:40 437.345
XW-2B 25 Mar 06:09:24 06:10:28 11° 92° (E) 06:11:31 145.730 - 145.750
AO-7 25 Mar 06:11:06 06:18:18 35° 300° (WNW) 06:25:30 .
STRAND 1 25 Mar 06:11:12 06:13:12 12° 61° (ENE) 06:15:12 437.568
KAITUO 1B 25 Mar 06:15:41 06:16:01 10° 91° (E) 06:16:21 145.475/437.950
XW-2C 25 Mar 06:18:26 06:20:39 15° 93° (E) 06:22:51 145.795 - 145.815
CUTE-I 25 Mar 06:30:07 06:34:23 24° 95° (E) 06:38:35 437.470
DOVE 4 25 Mar 06:49:51 06:55:08 60° 100° (E) 07:00:17 437.250
M-CUBED/EXP-1 PRIME 25 Mar 06:56:47 06:59:59 31° 259° (WSW) 07:03:26 437.505
LilacSat-2 25 Mar 07:08:23 07:12:08 73° 101° (ESE) 07:15:53 437.200
NO-84 25 Mar 07:09:21 07:11:53 27° 129° (SE) 07:14:22 435.350 FM
XW-2F 25 Mar 07:10:32 07:14:17 71° 101° (ESE) 07:17:59 145.980 - 146.000
YUBILEINY 25 Mar 07:15:32 07:22:43 30° 84° (E) 07:29:52 435.215
CUTE 1.7 + AOD 2 25 Mar 07:29:03 07:30:53 12° 91° (E) 07:32:42 437.475
XW-2D 25 Mar 07:35:21 07:38:59 48° 285° (WNW) 07:42:35 145.860 - 145.880
AO-85 25 Mar 07:40:16 07:43:38 27° 246° (WSW) 07:47:07 145.980
XW-2B 25 Mar 07:41:18 07:44:51 41° 286° (WNW) 07:48:23 145.730 - 145.750
NUDT-PHONESAT 25 Mar 07:41:51 07:45:26 51° 285° (WNW) 07:48:59 437.300
STRAND 1 25 Mar 07:46:30 07:51:40 80° 258° (WSW) 07:56:50 437.568
KAITUO 1B 25 Mar 07:46:44 07:50:16 43° 286° (WNW) 07:53:46 145.475/437.950
XW-2C 25 Mar 07:51:35 07:54:55 30° 288° (WNW) 07:58:13 145.795 - 145.815
BEESAT 3 25 Mar 07:53:34 07:57:18 35° 54° (NE) 08:00:59 437.485
BEESAT 2 25 Mar 08:05:19 08:08:25 20° 49° (NE) 08:11:28 435.950
CUTE-I 25 Mar 08:09:33 08:14:31 40° 290° (WNW) 08:19:27 437.470
HO-68 25 Mar 08:17:07 08:24:05 51° 101° (E) 08:31:00 435.675
XW-2A 25 Mar 08:23:34 08:26:58 81° 103° (ESE) 08:30:19 145.665 - 145.685
CUBEBUG 2 25 Mar 08:26:16 08:29:59 26° 95° (E) 08:33:33 437.445
DOVE 4 25 Mar 08:28:53 08:32:14 17° 296° (WNW) 08:35:34 437.250
FO-29 25 Mar 08:41:23 08:42:24 10° 54° (NE) 08:43:23 435.910
ZACube-1 25 Mar 08:43:06 08:45:02 13° 91° (E) 08:46:56 437.345
NO-84 25 Mar 08:47:22 08:49:26 18° 326° (NW) 08:51:30 435.350 FM
AAUSAT CUBESAT 2 25 Mar 08:49:44 08:53:31 33° 97° (E) 08:57:16 437.432
SEEDS 25 Mar 08:59:27 09:03:38 83° 284° (WNW) 09:07:49 437.485
CUTE 1.7 + AOD 2 25 Mar 09:02:54 09:06:57 47° 286° (WNW) 09:11:00 437.475
PRISM 25 Mar 09:07:47 09:11:05 25° 69° (ENE) 09:14:25 437.425
YUBILEINY 25 Mar 09:10:26 09:18:58 55° 282° (WNW) 09:27:31 435.215
AO-73 25 Mar 09:11:18 09:14:48 25° 95° (E) 09:18:13 145.935
TIGRISAT 25 Mar 09:13:57 09:16:40 15° 65° (ENE) 09:19:21 435.000
UNISAT 6 25 Mar 09:22:44 09:26:09 20° 67° (ENE) 09:29:35 437.425
PCSat 25 Mar 09:23:31 09:27:34 22° 106° (ESE) 09:31:36 145.827
BEESAT 3 25 Mar 09:31:53 09:34:37 18° 250° (WSW) 09:37:19 437.485
UWE-3 25 Mar 09:32:24 09:36:45 88° 276° (W) 09:40:57 435.000/436.395/437.385
BEESAT 2 25 Mar 09:42:33 09:46:16 35° 246° (WSW) 09:49:55 435.950
JUGNU 25 Mar 09:49:04 09:51:08 12° 175° (S) 09:53:13 437.505
CUBEBUG 2 25 Mar 10:02:53 10:06:29 25° 291° (WNW) 10:09:58 437.445
HO-68 25 Mar 10:05:28 10:11:26 30° 298° (WNW) 10:17:25 435.675
Oscar 11 25 Mar 10:13:10 10:17:28 69° 284° (WNW) 10:21:43 .
ZACube-1 25 Mar 10:17:31 10:21:35 45° 287° (WNW) 10:25:32 437.345
FO-29 25 Mar 10:18:22 10:25:59 56° 71° (ENE) 10:33:15 435.910
DELFI C3 25 Mar 10:25:11 10:29:02 45° 99° (E) 10:32:52 145.870
AAUSAT CUBESAT 2 25 Mar 10:25:53 10:28:42 18° 292° (WNW) 10:31:31 437.432
PRISM 25 Mar 10:43:03 10:46:17 23° 264° (W) 10:49:33 437.425
POLYITAN 1 25 Mar 10:44:40 10:45:56 11° 64° (ENE) 10:47:11 437.675
AO-73 25 Mar 10:47:33 10:50:55 23° 291° (WNW) 10:54:14 145.935
TIGRISAT 25 Mar 10:48:17 10:52:53 53° 260° (W) 10:57:28 435.000
QB50P2 25 Mar 10:48:18 10:50:23 13° 65° (ENE) 10:52:28 145.880/145.840
AIST 2D 25 Mar 10:52:42 10:55:15 19° 70° (ENE) 10:57:49 435.315
UNISAT 6 25 Mar 10:58:12 11:02:34 38° 262° (W) 11:06:57 437.425
LO-87 25 Mar 10:59:51 11:00:52 11° 92° (E) 11:01:53 145.935 - 145.965
DUCHIFAT 1 25 Mar 11:02:50 11:05:14 15° 66° (ENE) 11:07:38 145.980
PCSat 25 Mar 11:05:22 11:10:35 47° 303° (WNW) 11:15:49 145.827
JUGNU 25 Mar 11:37:08 11:39:15 12° 185° (S) 11:41:22 437.505
NANOSAT C BR1 25 Mar 11:45:57 11:50:03 50° 74° (ENE) 11:54:12 145.865
EO-79 25 Mar 11:49:19 11:53:31 61° 76° (ENE) 11:57:46 145.935-145.965
SRMSAT 25 Mar 11:49:24 11:50:50 11° 171° (S) 11:52:17 437.500
RS-15 25 Mar 11:50:51 12:00:11 28° 101° (ESE) 12:09:42 29.354- 29.394
DELFI C3 25 Mar 12:01:38 12:03:24 13° 294° (WNW) 12:05:09 145.870
FO-29 25 Mar 12:04:32 12:11:08 29° 266° (W) 12:17:33 435.910
ESTCUBE 1 25 Mar 12:15:58 12:20:23 51° 100° (E) 12:24:46 437.505/2401.250
POLYITAN 1 25 Mar 12:16:54 12:21:09 63° 259° (W) 12:25:25 437.675
QB50P2 25 Mar 12:21:33 12:25:43 50° 260° (W) 12:29:54 145.880/145.840
AIST 2D 25 Mar 12:25:33 12:28:20 22° 265° (W) 12:31:08 435.315
LO-87 25 Mar 12:31:03 12:34:30 40° 286° (WNW) 12:37:55 145.935 - 145.965
DUCHIFAT 1 25 Mar 12:36:26 12:40:30 44° 261° (W) 12:44:36 145.980
Oscar 19 25 Mar 12:48:57 12:53:05 26° 67° (ENE) 12:57:15 437.125/150
Gurwin Techsat 1B 25 Mar 12:51:18 12:54:26 16° 62° (ENE) 12:57:34 435.225
SPROUT 25 Mar 12:56:39 13:00:38 36° 98° (E) 13:04:34 437.525
BUGSAT 1 25 Mar 12:59:01 13:03:13 78° 258° (WSW) 13:07:30 437.445
DX 1 25 Mar 13:18:36 13:22:26 29° 97° (E) 13:26:13 434.975-435.025
NANOSAT C BR1 25 Mar 13:24:15 13:26:02 12° 268° (W) 13:27:49 145.865
AO-7 25 Mar 13:28:32 13:31:45 13° 47° (NE) 13:34:59 .
EO-79 25 Mar 13:29:12 13:29:38 10° 269° (W) 13:30:04 145.935-145.965
50 SAT 25 Mar 13:35:28 13:39:00 84° 105° (ESE) 13:42:30 437.505
VELOX 1 25 Mar 13:35:42 13:40:10 69° 285° (WNW) 13:44:35 145.980
SRMSAT 25 Mar 13:36:36 13:39:08 13° 182° (S) 13:41:39 437.500
NO-84 25 Mar 13:44:35 13:46:16 13° 31° (NNE) 13:47:59 435.350 FM
ESTCUBE 1 25 Mar 13:54:17 13:56:43 15° 295° (WNW) 13:59:09 437.505/2401.250
RS-15 25 Mar 13:59:20 14:11:19 79° 302° (WNW) 14:23:47 29.354- 29.394
UKube-1 25 Mar 14:01:37 14:05:56 63° 102° (ESE) 14:10:13 .
